Location: B?jaj?g
(11.7167°N, 92.6667°E)
Time: 17:25:11
(UTC+00:00)

SWARM A - Pass Details

Date: 18 September 2020
Orbit: 430 x 433 km, 87.4° (Epoch: 31 October)

Event Time Altitude Azimuth Distance (km) Brightness Sun altitude
Rises 12:18:56 0° 360° (N) 2,397 8.0 -8.4°
Reaches altitude 10° 12:20:57 10° 359° (N) 1,530 7.1 -8.9°
Maximum altitude 12:24:16 85° 273° (W) 437 4.2 -9.7°
Drops below altitude 10° 12:27:34 10° 183° (S) 1,527 7.0 -10.5°
Sets 12:29:36 0° 182° (S) 2,393 8.0 -11.0°
